Wind_Speed
5 8 9 11 10 10 8 10 12 9 6 5 8 9 7 6 6 8 7 7 8 10 10 10 9 9 10 11 13 15 15 13 14 14 16 16 16 12 11 10 10 8 10 10
6 10 7 8 8 8 8 9 8 6 4 4 7 6 7 5 8 8 6 7 6 6 9 9 9 9 10 11 13 14 14 13 14 16 14 14 14 12 10 10 11 10 12 11
9 11 6 6 6 3 3 7 6 2 7 4 9 11 10 8 7 6 5 5 6 6 7 7 9 8 10 12 12 13 13 13 13 15 16 16 14 13 12 15 14 14 12 12
9 6 5 3 3 7 2 3 5 10 10 5 13 5 15 15 10 8 7 5 5 6 6 6 7 8 9 10 11 12 12 13 14 14 16 15 15 16 15 14 14 17 14 13
8 5 2 7 7 4 6 1 5 9 11 6 14 6 10 11 10 10 7 5 5 4 4 8 9 9 7 8 11 11 12 13 13 15 16 16 17 18 17 17 17 14 12 9
9 4 7 4 5 8 7 2 5 9 8 12 8 4 9 3 5 2 10 7 6 5 5 8 7 6 6 8 10 12 12 13 15 17 15 15 17 16 16 16 17 16 17 12
8 5 5 8 4 8 6 8 11 9 7 6 6 6 11 15 11 9 9 9 8 7 9 10 9 11 10 10 11 13 14 16 18 17 15 17 17 16 16 17 17 18 17 14
5 8 5 8 8 7 4 8 8 13 11 12 5 4 5 8 7 7 10 9 8 5 6 10 9 11 12 12 13 14 16 19 18 17 16 17 16 16 15 14 16 16 16 14
2 4 5 7 8 9 9 6 7 10 12 9 3 11 8 4 4 4 5 5 3 3 5 7 9 10 11 13 12 15 17 17 18 18 16 15 14 15 16 17 16 16 15 14
3 2 1 3 5 7 9 5 7 5 7 9 2 6 6 10 3 3 5 3 4 2 3 5 8 9 9 10 15 14 16 19 20 17 14 15 17 17 18 20 17 16 15 14
5 4 6 5 8 10 8 7 5 4 4 6 7 5 4 7 5 2 3 1 4 2 4 6 9 7 11 16 15 15 16 15 15 16 16 18 17 17 16 15 14 15 15 10
5 4 3 6 5 5 8 7 6 5 3 4 5 4 5 5 6 4 4 6 6 6 7 3 8 13 16 17 17 15 13 15 14 14 15 14 17 18 17 15 11 15 14 10
3 3 6 10 7 6 6 8 5 2 4 6 8 5 5 3 5 6 6 6 6 6 9 11 14 16 18 18 16 15 15 13 14 13 12 13 16 18 17 15 13 10 9 8
2 2 4 6 7 2 3 6 8 6 5 5 6 7 4 5 6 4 5 4 9 5 7 10 14 16 16 16 16 17 16 13 12 12 13 14 17 16 15 13 16 13 6 8
3 4 4 7 5 4 4 5 8 8 7 6 9 7 8 5 5 5 5 6 4 7 10 11 12 15 15 14 14 14 12 12 12 12 14 15 20 16 11 10 12 13 10 6
2 3 2 4 3 2 3 4 3 5 7 6 6 5 4 3 3 5 2 4 6 8 10 11 13 15 13 13 12 10 12 12 12 14 15 15 16 14 14 11 7 9 8 9
1 3 3 4 2 4 5 7 6 6 5 7 9 8 1 1 1 2 3 3 7 9 9 9 14 11 10 11 10 11 11 11 13 13 15 15 13 14 14 14 14 13 11 10
5 1 2 3 3 1 6 3 6 8 5 6 2 4 4 4 4 3 4 6 7 8 7 11 10 9 8 8 9 10 12 12 12 13 13 14 14 14 15 14 14 13 12 11
3 2 2 3 1 3 4 2 6 10 4 6 7 2 2 2 5 5 6 7 7 8 7 8 7 6 7 8 9 9 10 11 12 13 13 13 14 14 13 13 12 11 9 9
5 2 3 1 2 2 6 2 6 7 4 5 6 4 1 3 8 9 5 5 7 5 7 7 7 6 7 9 8 9 10 11 11 12 12 12 12 11 11 11 13 10 11 11
2 2 5 2 1 4 5 5 5 5 5 4 6 5 1 3 6 7 4 7 6 5 4 5 6 8 7 6 7 9 11 12 11 10 9 10 10 8 9 11 12 14 16 16
4 4 4 1 2 3 6 4 7 5 3 3 4 3 4 6 5 4 5 7 5 2 5 5 4 3 4 6 7 10 11 10 8 8 7 9 9 8 8 10 8 10 10 7
2 5 4 6 5 3 3 6 6 3 3 3 4 5 6 5 4 4 7 5 3 1 3 4 3 5 4 6 8 9 10 8 8 10 12 13 11 10 9 13 13 16 15 15
4 1 2 4 4 3 4 6 5 5 6 6 6 5 4 6 4 6 5 3 2 3 5 3 3 7 6 7 7 8 7 8 11 11 11 11 10 9 9 10 13 19 17 14
5 2 2 3 6 1 4 3 6 7 7 7 6 5 6 6 6 4 3 2 5 1 4 3 5 5 6 6 8 8 9 11 10 10 11 10 8 9 11 15 14 15 20 19
9 8 5 7 6 6 5 7 7 7 6 6 6 7 6 5 6 5 4 2 6 5 2 3 3 3 6 5 8 9 9 8 7 8 8 9 7 10 10 9 10 16 19 20
Wind_Direction
202 227 62 48 42 64 87 104 112 112 106 96 129 145 152 155 148 117 107 109 126 112 124 108 108 91 86 77 62 48 39 30 22 9 358 350 343 337 334 337 343 335 333 323
177 78 82 101 100 105 105 119 113 115 179 222 157 141 145 179 126 129 133 124 112 114 102 84 75 68 67 60 50 40 29 21 15 4 357 352 344 340 332 343 328 326 327 322
92 116 130 125 120 133 54 18 168 55 160 162 176 182 178 159 147 148 127 172 122 107 108 90 78 54 42 39 31 24 17 13 9 359 354 355 346 345 345 339 333 338 320 314
93 127 158 189 68 318 63 4 189 166 199 325 203 332 187 165 177 193 190 169 143 112 78 107 73 43 30 22 16 11 9 6 359 358 351 348 339 339 335 329 339 322 324 313
101 133 101 64 24 329 51 200 216 201 243 263 184 256 99 162 187 189 205 152 122 102 54 58 40 21 19 12 7 9 4 357 356 349 344 339 342 333 330 330 331 319 324 320
107 96 42 50 56 30 130 175 233 219 252 251 94 281 74 73 292 140 151 119 107 74 64 40 24 359 3 360 4 358 353 348 342 340 337 339 334 329 329 333 322 334 323 329
134 85 96 10 271 152 241 300 311 289 283 333 80 276 41 45 38 27 130 114 89 66 28 313 318 355 2 7 1 349 346 337 337 336 335 333 327 324 324 332 332 326 327 322
238 162 21 15 23 330 338 329 322 311 320 324 151 356 66 34 40 55 77 103 99 101 250 274 329 350 350 354 354 338 338 336 337 337 328 328 329 332 330 332 332 332 331 324
228 133 110 48 33 348 353 331 337 285 267 261 63 106 105 107 68 65 105 118 134 212 267 309 333 7 4 346 328 341 341 339 345 337 335 338 339 338 338 335 331 330 332 334
72 204 330 51 286 87 12 1 309 288 296 314 93 64 35 11 81 148 148 139 230 244 320 342 12 6 347 329 338 346 352 0 350 347 351 352 353 347 341 329 322 323 326 336
337 302 109 227 24 7 347 359 330 284 317 316 329 71 36 6 20 104 105 159 43 34 26 32 32 323 337 338 343 8 358 344 344 351 355 351 346 339 335 341 343 337 330 344
29 352 336 48 82 31 50 13 347 320 27 348 280 72 32 23 43 49 56 75 61 44 46 21 342 345 347 343 2 354 343 345 350 357 355 350 356 0 355 354 356 4 10 9
7 62 298 157 181 126 37 19 2 313 267 26 326 77 49 46 44 37 60 82 69 44 23 2 351 355 9 7 355 350 348 350 1 360 349 7 2 2 353 5 358 355 3 4
34 51 353 19 45 345 64 32 24 355 349 347 48 339 88 38 14 55 75 64 54 34 358 10 356 10 14 0 7 4 16 15 359 352 14 5 357 356 0 5 9 9 28 17
28 84 81 77 77 67 76 35 30 42 20 9 5 337 45 23 36 67 75 69 29 13 6 6 6 17 21 6 4 7 9 2 4 21 10 7 358 11 7 11 15 22 24 10
26 112 138 100 102 94 79 59 15 29 9 350 330 81 62 97 95 71 83 36 21 9 7 5 15 28 10 0 358 10 8 13 13 19 8 5 12 9 9 19 15 31 31 30
65 135 252 82 158 268 195 26 1 343 6 348 346 14 103 180 47 97 62 24 12 14 16 5 37 17 2 5 355 9 13 22 23 7 11 20 19 26 24 26 27 25 26 34
131 132 327 70 240 236 69 30 354 329 31 5 329 5 1 17 97 103 40 19 18 20 15 30 22 10 4 11 13 27 23 24 18 20 18 20 23 27 30 31 30 36 42 43
51 312 94 326 331 85 149 90 351 340 14 33 0 5 39 124 188 114 73 45 31 36 34 28 13 352 350 22 35 26 27 30 26 22 15 13 13 24 19 20 20 28 31 35
105 99 30 340 307 20 59 36 342 301 166 37 349 350 302 237 281 102 82 48 58 47 47 22 25 16 45 48 34 21 14 19 10 1 356 7 17 12 21 34 36 34 40 42
143 17 7 62 13 114 50 348 307 285 31 27 359 6 37 318 37 85 101 85 66 57 36 30 45 56 44 25 10 6 6 12 3 356 359 7 19 25 44 50 47 45 62 67
2 333 38 267 301 97 10 269 342 61 70 40 29 41 80 97 116 109 88 82 82 40 29 53 72 76 35 7 1 358 360 358 2 18 29 35 49 65 66 60 41 45 44 41
129 28 10 5 34 58 38 69 86 66 95 62 81 82 108 116 121 88 102 104 112 19 11 73 29 108 44 8 358 358 7 27 51 66 77 78 79 75 55 43 38 43 35 36
102 49 26 253 80 62 107 114 108 80 88 87 102 107 113 110 111 106 118 140 188 81 67 56 31 70 45 16 10 27 46 73 92 93 84 82 72 73 51 46 37 43 32 38
23 246 14 146 88 168 136 130 123 112 106 105 96 101 109 111 92 101 108 119 94 82 73 55 59 58 38 21 50 73 77 91 94 81 81 69 72 60 60 60 56 51 45 46
355 9 350 40 17 345 55 141 139 133 120 102 114 124 109 103 101 104 91 89 134 112 97 73 78 77 60 59 90 89 77 69 74 78 69 71 74 62 64 70 81 62 50 45
Height
776 778 788 787 784 786 795 807 824 828 825 829 835 846 849 846 846 854 859 864 868 871 873 874 874 873 872 872 871 869 869 869 867 866 864 861 859 856 854 853 852 850 848 846
782 801 794 788 789 794 798 811 824 829 826 827 837 849 854 848 847 856 862 862 865 865 868 872 873 874 873 871 871 870 871 870 869 867 865 863 860 856 854 852 852 850 848 846
788 801 794 795 798 801 804 807 821 820 830 828 841 845 857 857 856 857 859 860 859 862 866 868 871 873 872 871 871 870 870 870 869 867 864 862 858 855 852 851 849 848 846 844
796 793 797 798 805 802 806 805 811 825 825 818 823 830 828 846 859 861 857 857 857 861 868 870 869 871 872 872 871 870 870 869 868 867 865 863 859 855 854 850 848 847 844 842
806 800 801 806 813 801 815 806 809 815 816 825 826 833 819 823 851 860 859 861 863 865 866 870 870 872 872 871 871 870 870 869 868 867 865 862 859 856 852 850 848 844 841 839
799 792 800 805 805 804 806 813 813 811 811 824 816 825 829 836 838 843 857 862 864 867 871 872 871 871 870 870 870 870 870 870 868 866 864 861 859 856 853 849 845 841 838 836
806 808 802 801 805 806 809 810 822 823 818 817 816 826 852 852 849 848 855 864 868 872 878 878 868 868 870 872 872 871 869 868 866 865 863 860 858 855 851 848 845 842 837 834
817 828 812 808 816 820 815 821 826 852 835 822 810 830 869 861 857 854 860 868 872 878 879 877 870 874 873 873 874 872 869 867 865 863 862 859 856 853 850 848 845 841 839 836
819 829 815 816 812 814 816 823 819 832 812 824 811 852 861 866 867 866 868 869 877 876 875 875 874 876 878 875 875 871 869 867 865 865 862 859 856 853 850 848 845 841 839 836
816 831 822 821 814 812 822 820 833 819 846 846 816 836 867 866 869 871 868 876 874 871 876 876 878 879 878 876 872 871 870 869 866 864 861 858 856 854 851 848 844 841 838 835
811 819 831 823 834 838 828 830 831 835 836 841 838 865 862 863 861 865 864 867 868 874 874 878 881 879 875 873 871 871 872 870 866 864 862 859 856 852 849 846 844 841 837 835
824 826 835 837 837 833 836 842 838 840 850 845 842 875 856 858 861 863 866 869 873 875 878 880 877 875 875 873 873 874 873 869 867 865 863 860 856 853 849 846 844 841 838 836
827 838 843 848 846 835 845 843 840 844 841 853 849 866 857 861 862 865 866 874 876 878 880 880 878 877 878 879 878 876 873 871 869 867 864 861 859 855 851 848 845 841 840 839
830 841 846 848 853 849 854 851 843 843 848 851 860 857 856 863 865 868 873 874 880 884 882 881 880 881 883 882 881 878 876 874 871 867 865 863 860 856 853 850 846 843 841 840
832 850 846 848 849 849 853 854 853 855 855 861 859 858 860 866 867 870 873 882 882 884 883 883 884 885 887 886 883 881 879 875 871 869 867 865 862 858 854 851 849 845 843 841
838 852 847 857 853 852 857 855 853 856 858 853 855 868 863 868 870 874 880 881 884 883 885 886 887 890 890 888 886 883 879 877 874 872 869 867 863 860 856 852 849 847 845 843
841 848 850 856 856 856 859 859 856 855 853 863 865 865 865 870 875 878 882 884 885 886 888 889 892 893 891 889 887 883 881 879 877 874 870 868 865 862 858 856 853 850 848 845
845 848 847 857 857 870 860 854 856 860 855 860 862 865 867 869 877 880 882 884 887 889 892 892 895 895 892 890 887 886 883 882 879 876 873 870 867 865 862 859 856 853 850 848
838 843 857 863 864 862 860 860 862 865 864 865 865 869 872 875 877 883 887 890 891 894 895 897 897 895 893 890 890 888 886 884 881 879 876 873 870 866 864 861 859 856 854 852
842 841 850 857 867 872 864 860 858 856 873 868 869 869 872 875 867 879 888 892 894 896 899 899 897 895 893 893 892 890 887 885 882 880 877 875 873 869 867 864 862 859 857 854
847 849 858 863 865 861 860 860 857 869 878 871 872 872 874 874 880 887 891 894 898 900 899 899 898 897 897 896 894 891 888 886 884 881 879 876 875 872 870 867 865 862 860 857
850 855 858 858 863 872 864 860 868 872 873 874 875 876 879 883 887 890 892 898 901 901 899 899 899 898 898 896 894 892 889 887 884 882 880 878 876 874 872 870 867 865 862 859
856 859 861 864 865 867 867 868 872 871 873 876 878 881 883 886 888 891 897 900 902 901 900 900 898 898 898 897 895 893 890 887 885 884 882 881 879 877 875 873 870 867 864 861
856 857 857 862 866 865 869 872 874 874 878 880 883 885 885 887 890 895 898 900 901 901 899 901 898 898 898 898 895 893 891 889 888 886 884 883 881 880 878 876 873 871 869 867
859 857 861 859 861 865 869 871 876 879 882 884 886 887 889 890 892 895 899 900 902 901 901 902 900 900 899 898 896 895 893 891 890 888 887 886 884 882 880 879 878 877 875 872
865 869 861 866 866 866 870 874 878 881 883 886 888 891 892 892 894 898 899 901 902 901 902 902 901 901 900 900 898 897 896 895 893 891 889 888 886 883 881 881 880 879 878 876